MSR59M HESN-HESH

Flight info

Callsign MSR59M
Flight time 0h 49m
Altitude 30000
Route ASN V738 BOVAR A727 LXR/N0413F290 L604 ASRAB/N0399F280 R650 SHM
Aircraft B738/M-SDE2E3FGHIRWXY/LB1

Departure

Time 2026-05-05 17:25
Airport Aswan International Airport (HESN)

Arrival

Time 2026-05-05 18:14
Airport Sharm El Sheikh International Airport (HESH)
Time Latitude Longitude Altitude Speed Heading
2026-05-05 17:02 23.96268 32.82435 653 ft 0 kts 120°
2026-05-05 17:18 23.96278 32.82416 653 ft 4 kts 108°
2026-05-05 17:18 23.96281 32.82388 653 ft 4 kts 73°
2026-05-05 17:19 23.96270 32.82370 653 ft 4 kts
2026-05-05 17:19 23.96265 32.82370 653 ft 1 kts 352°
2026-05-05 17:20 23.96274 32.82368 653 ft 6 kts 352°
2026-05-05 17:21 23.96340 32.82358 652 ft 11 kts 351°
2026-05-05 17:21 23.96397 32.82311 651 ft 11 kts 277°
2026-05-05 17:21 23.96393 32.82254 651 ft 11 kts 262°
2026-05-05 17:22 23.96301 32.82166 652 ft 11 kts 171°
2026-05-05 17:22 23.96229 32.82179 653 ft 10 kts 170°
2026-05-05 17:22 23.96160 32.82192 654 ft 10 kts 170°
2026-05-05 17:22 23.96092 32.82204 655 ft 10 kts 170°
2026-05-05 17:23 23.95984 32.82222 657 ft 21 kts 171°
2026-05-05 17:23 23.95844 32.82246 658 ft 20 kts 171°
2026-05-05 17:23 23.95707 32.82272 660 ft 21 kts 170°
2026-05-05 17:23 23.95530 32.82301 661 ft 30 kts 171°
2026-05-05 17:24 23.95302 32.82344 664 ft 36 kts 171°
2026-05-05 17:24 23.95078 32.82381 667 ft 21 kts 171°
2026-05-05 17:24 23.94957 32.82369 669 ft 17 kts 224°
2026-05-05 17:24 23.94969 32.82256 669 ft 17 kts 331°
2026-05-05 17:25 23.95178 32.82213 665 ft 66 kts 351°
2026-05-05 17:25 23.95615 32.82137 660 ft 121 kts 351°
2026-05-05 17:25 23.97073 32.81888 968 ft 184 kts 351°
2026-05-05 17:25 23.98442 32.81687 1585 ft 210 kts 352°
2026-05-05 17:26 23.99893 32.81509 2517 ft 205 kts 354°
2026-05-05 17:26 24.01247 32.81381 3752 ft 184 kts 355°
2026-05-05 17:26 24.02478 32.81306 4816 ft 175 kts 355°
2026-05-05 17:26 24.03675 32.80818 5194 ft 201 kts 320°
2026-05-05 17:27 24.04814 32.79771 5439 ft 228 kts 320°
2026-05-05 17:27 24.06138 32.78648 5647 ft 254 kts 323°
2026-05-05 17:27 24.07650 32.77470 5978 ft 276 kts 325°
2026-05-05 17:27 24.09255 32.76311 6749 ft 282 kts 327°
2026-05-05 17:28 24.10938 32.75188 7614 ft 285 kts 330°
2026-05-05 17:28 24.12709 32.74181 8411 ft 290 kts 340°
2026-05-05 17:28 24.14715 32.73994 9146 ft 295 kts
2026-05-05 17:28 24.16742 32.74430 9935 ft 298 kts 12°
2026-05-05 17:29 24.18797 32.74925 10460 ft 312 kts 12°
2026-05-05 17:29 24.21005 32.75459 10625 ft 335 kts 12°
2026-05-05 17:29 24.23337 32.76012 10981 ft 349 kts 12°
2026-05-05 17:29 24.25738 32.76569 11554 ft 354 kts 11°
2026-05-05 17:30 24.28163 32.77120 12201 ft 357 kts 11°
2026-05-05 17:30 24.30605 32.77667 12808 ft 360 kts 11°
2026-05-05 17:30 24.33078 32.78215 13373 ft 364 kts 11°
2026-05-05 17:30 24.35573 32.78764 13922 ft 367 kts 11°
2026-05-05 17:31 24.38056 32.79309 14481 ft 370 kts 11°
2026-05-05 17:31 24.40629 32.79873 14962 ft 374 kts 11°
2026-05-05 17:31 24.43195 32.80435 15429 ft 378 kts 11°
2026-05-05 17:31 24.45753 32.80994 15895 ft 381 kts 11°
2026-05-05 17:32 24.48371 32.81567 16355 ft 384 kts 11°
2026-05-05 17:32 24.51004 32.82144 16795 ft 386 kts 11°
2026-05-05 17:32 24.53649 32.82723 17222 ft 389 kts 11°
2026-05-05 17:32 24.56313 32.83307 17620 ft 392 kts 11°
2026-05-05 17:33 24.59005 32.83897 17986 ft 395 kts 11°
2026-05-05 17:33 24.61711 32.84491 18348 ft 398 kts 11°
2026-05-05 17:33 24.64442 32.85090 18703 ft 400 kts 11°
2026-05-05 17:33 24.67186 32.85692 19045 ft 403 kts 11°
2026-05-05 17:34 24.69914 32.86292 19369 ft 405 kts 11°
2026-05-05 17:34 24.72692 32.86902 19683 ft 408 kts 11°
2026-05-05 17:34 24.75482 32.87515 19985 ft 410 kts 11°
2026-05-05 17:34 24.78286 32.88132 20265 ft 412 kts 11°
2026-05-05 17:35 24.81112 32.88754 20542 ft 415 kts 11°
2026-05-05 17:35 24.83963 32.89382 20682 ft 420 kts 11°
2026-05-05 17:35 24.86836 32.90014 20926 ft 422 kts 11°
2026-05-05 17:35 24.89711 32.90648 21288 ft 420 kts 11°
2026-05-05 17:36 24.92576 32.91279 21595 ft 421 kts 11°
2026-05-05 17:36 24.95458 32.91915 21811 ft 423 kts 11°
2026-05-05 17:36 24.98313 32.92545 22002 ft 425 kts 11°
2026-05-05 17:36 25.01220 32.93187 22190 ft 428 kts 11°
2026-05-05 17:37 25.04155 32.93835 22323 ft 431 kts 11°
2026-05-05 17:37 25.07107 32.94488 22436 ft 434 kts 11°
2026-05-05 17:37 25.10061 32.95141 22773 ft 432 kts 11°
2026-05-05 17:37 25.13017 32.95795 22974 ft 433 kts 11°
2026-05-05 17:38 25.15969 32.96448 23185 ft 433 kts 11°
2026-05-05 17:38 25.18928 32.97103 23364 ft 434 kts 11°
2026-05-05 17:38 25.21895 32.97760 23523 ft 436 kts 11°
2026-05-05 17:38 25.24878 32.98422 23584 ft 440 kts 11°
2026-05-05 17:39 25.27892 32.99090 23655 ft 442 kts 11°
2026-05-05 17:39 25.30909 32.99759 23882 ft 441 kts 11°
2026-05-05 17:39 25.33918 33.00427 24102 ft 440 kts 11°
2026-05-05 17:39 25.36922 33.01095 24262 ft 441 kts 11°
2026-05-05 17:40 25.39894 33.01755 24377 ft 442 kts 11°
2026-05-05 17:40 25.42923 33.02429 24485 ft 444 kts 11°
2026-05-05 17:40 25.45954 33.03103 24610 ft 445 kts 11°
2026-05-05 17:40 25.48975 33.03775 24871 ft 442 kts 11°
2026-05-05 17:41 25.52000 33.04449 24899 ft 446 kts 11°
2026-05-05 17:41 25.55052 33.05129 24942 ft 448 kts 11°
2026-05-05 17:41 25.58117 33.05812 25037 ft 449 kts 11°
2026-05-05 17:41 25.61178 33.06495 25158 ft 449 kts 11°
2026-05-05 17:42 25.64248 33.07180 25272 ft 450 kts 11°
2026-05-05 17:42 25.67281 33.07857 25789 ft 439 kts 11°
2026-05-05 17:42 25.70262 33.08523 25842 ft 433 kts 11°
2026-05-05 17:42 25.73210 33.09182 25962 ft 433 kts 11°
2026-05-05 17:43 25.76168 33.09843 25995 ft 433 kts 11°
2026-05-05 17:43 25.79103 33.10569 25989 ft 428 kts 16°
2026-05-05 17:43 25.81870 33.11722 25937 ft 423 kts 23°
2026-05-05 17:43 25.84569 33.13054 25386 ft 425 kts 24°
2026-05-05 17:44 25.87224 33.14401 24903 ft 422 kts 24°
2026-05-05 17:44 25.89884 33.15753 24406 ft 419 kts 24°
2026-05-05 17:44 25.92530 33.17088 23909 ft 416 kts 24°
2026-05-05 17:44 25.95167 33.18408 23409 ft 413 kts 24°
2026-05-05 17:45 25.97773 33.19704 22912 ft 409 kts 24°
2026-05-05 17:45 26.00366 33.20989 22413 ft 406 kts 24°
2026-05-05 17:45 26.02931 33.22259 22045 ft 401 kts 24°
2026-05-05 17:45 26.05487 33.23523 21529 ft 404 kts 24°
2026-05-05 17:46 26.08094 33.24812 21049 ft 413 kts 24°
2026-05-05 17:46 26.10733 33.26118 20552 ft 417 kts 24°
2026-05-05 17:46 26.13370 33.27425 20230 ft 411 kts 24°
2026-05-05 17:46 26.15974 33.28716 20055 ft 411 kts 24°
2026-05-05 17:47 26.18584 33.30010 20008 ft 408 kts 24°
2026-05-05 17:47 26.21134 33.31276 19987 ft 393 kts 24°
2026-05-05 17:47 26.23587 33.32493 19985 ft 381 kts 24°
2026-05-05 17:47 26.26002 33.33693 19834 ft 380 kts 24°
2026-05-05 17:48 26.28413 33.34891 19577 ft 378 kts 24°
2026-05-05 17:48 26.30803 33.36079 19328 ft 374 kts 24°
2026-05-05 17:48 26.33179 33.37261 19078 ft 372 kts 24°
2026-05-05 17:48 26.35538 33.38434 18830 ft 371 kts 24°
2026-05-05 17:49 26.37851 33.39586 18578 ft 366 kts 24°
2026-05-05 17:49 26.40149 33.40731 18320 ft 359 kts 24°
2026-05-05 17:49 26.42410 33.41857 18064 ft 352 kts 24°
2026-05-05 17:49 26.44631 33.42964 17812 ft 349 kts 24°
2026-05-05 17:50 26.46840 33.44065 17563 ft 346 kts 24°
2026-05-05 17:50 26.49028 33.45155 17310 ft 343 kts 24°
2026-05-05 17:50 26.51206 33.46242 17061 ft 341 kts 24°
2026-05-05 17:50 26.53366 33.47319 16812 ft 339 kts 24°
2026-05-05 17:51 26.54453 33.47862 16685 ft 338 kts 24°
2026-05-05 17:51 26.56599 33.48933 16436 ft 337 kts 24°
2026-05-05 17:51 26.58733 33.49999 16186 ft 335 kts 24°
2026-05-05 17:51 26.60864 33.51064 15936 ft 334 kts 24°
2026-05-05 17:52 26.62986 33.52125 15687 ft 333 kts 24°
2026-05-05 17:52 26.65027 33.53146 15443 ft 332 kts 24°
2026-05-05 17:52 26.67086 33.54176 15201 ft 331 kts 24°
2026-05-05 17:52 26.69180 33.55225 14949 ft 328 kts 24°
2026-05-05 17:53 26.71255 33.56265 14697 ft 325 kts 24°
2026-05-05 17:53 26.73314 33.57296 14447 ft 324 kts 24°
2026-05-05 17:53 26.75369 33.58326 14197 ft 322 kts 24°
2026-05-05 17:53 26.77412 33.59350 13947 ft 321 kts 24°
2026-05-05 17:54 26.79449 33.60372 13700 ft 320 kts 24°
2026-05-05 17:54 26.81481 33.61389 13449 ft 319 kts 24°
2026-05-05 17:54 26.83504 33.62400 13195 ft 318 kts 24°
2026-05-05 17:54 26.85526 33.63410 12948 ft 317 kts 24°
2026-05-05 17:55 26.87538 33.64415 12702 ft 316 kts 24°
2026-05-05 17:55 26.89548 33.65420 12448 ft 315 kts 24°
2026-05-05 17:55 26.91549 33.66422 12197 ft 314 kts 24°
2026-05-05 17:55 26.93517 33.67407 11951 ft 313 kts 24°
2026-05-05 17:56 26.95497 33.68399 11702 ft 312 kts 24°
2026-05-05 17:56 26.97477 33.69391 11452 ft 311 kts 24°
2026-05-05 17:56 26.99454 33.70382 11201 ft 310 kts 24°
2026-05-05 17:56 27.01419 33.71368 10950 ft 308 kts 24°
2026-05-05 17:57 27.03373 33.72348 10699 ft 307 kts 24°
2026-05-05 17:57 27.05321 33.73326 10448 ft 305 kts 24°
2026-05-05 17:57 27.07257 33.74298 10197 ft 304 kts 24°
2026-05-05 17:57 27.09182 33.75265 9946 ft 302 kts 24°
2026-05-05 17:58 27.11080 33.76219 9699 ft 301 kts 24°
2026-05-05 17:58 27.12990 33.77179 9445 ft 298 kts 24°
2026-05-05 17:58 27.14877 33.78127 9194 ft 296 kts 24°
2026-05-05 17:58 27.16757 33.79073 8944 ft 295 kts 24°
2026-05-05 17:59 27.18587 33.80113 8691 ft 294 kts 30°
2026-05-05 17:59 27.20338 33.81288 8443 ft 293 kts 31°
2026-05-05 17:59 27.22065 33.82488 8194 ft 292 kts 32°
2026-05-05 17:59 27.23794 33.83692 7943 ft 291 kts 31°
2026-05-05 18:00 27.25516 33.84884 7692 ft 290 kts 31°
2026-05-05 18:00 27.27212 33.86049 7446 ft 289 kts 31°
2026-05-05 18:00 27.28924 33.87220 7196 ft 288 kts 31°
2026-05-05 18:00 27.30632 33.88385 6943 ft 285 kts 31°
2026-05-05 18:01 27.32322 33.89534 6701 ft 281 kts 31°
2026-05-05 18:01 27.33980 33.90660 6571 ft 273 kts 31°
2026-05-05 18:01 27.35585 33.91748 6433 ft 266 kts 31°
2026-05-05 18:01 27.37127 33.92794 6335 ft 257 kts 31°
2026-05-05 18:02 27.38633 33.93816 6244 ft 250 kts 31°
2026-05-05 18:02 27.40114 33.94820 6165 ft 247 kts 31°
2026-05-05 18:02 27.41582 33.95815 6145 ft 245 kts 31°
2026-05-05 18:02 27.43034 33.96800 6141 ft 243 kts 31°
2026-05-05 18:03 27.44491 33.97789 6152 ft 246 kts 31°
2026-05-05 18:03 27.45972 33.98793 6165 ft 250 kts 31°
2026-05-05 18:03 27.47464 33.99806 6165 ft 250 kts 31°
2026-05-05 18:03 27.48952 34.00817 6163 ft 249 kts 31°
2026-05-05 18:04 27.50411 34.01808 6160 ft 248 kts 31°
2026-05-05 18:04 27.51890 34.02812 6158 ft 248 kts 31°
2026-05-05 18:04 27.53365 34.03814 6157 ft 247 kts 31°
2026-05-05 18:04 27.54839 34.04817 6157 ft 247 kts 31°
2026-05-05 18:05 27.56308 34.05815 6157 ft 247 kts 31°
2026-05-05 18:05 27.57811 34.06838 6012 ft 262 kts 31°
2026-05-05 18:05 27.59409 34.07925 5775 ft 271 kts 31°
2026-05-05 18:05 27.61038 34.09033 5528 ft 274 kts 31°
2026-05-05 18:06 27.62661 34.10139 5271 ft 271 kts 31°
2026-05-05 18:06 27.63185 34.10496 5188 ft 270 kts 31°
2026-05-05 18:06 27.65816 34.12288 4738 ft 256 kts 31°
2026-05-05 18:06 27.67317 34.13312 4475 ft 248 kts 31°
2026-05-05 18:07 27.68772 34.14304 4213 ft 241 kts 31°
2026-05-05 18:07 27.70185 34.15268 3953 ft 234 kts 31°
2026-05-05 18:07 27.71547 34.16197 3695 ft 228 kts 31°
2026-05-05 18:07 27.72894 34.17117 3434 ft 223 kts 31°
2026-05-05 18:08 27.74203 34.18011 3174 ft 218 kts 31°
2026-05-05 18:08 27.75481 34.18883 2930 ft 212 kts 31°
2026-05-05 18:08 27.76699 34.19715 2862 ft 196 kts 31°
2026-05-05 18:08 27.77826 34.20485 2843 ft 187 kts 31°
2026-05-05 18:09 27.78599 34.21013 2878 ft 199 kts 31°
2026-05-05 18:09 27.79781 34.21820 2841 ft 196 kts 31°
2026-05-05 18:09 27.80944 34.22615 2843 ft 201 kts 31°
2026-05-05 18:09 27.82124 34.23524 2823 ft 213 kts 40°
2026-05-05 18:10 27.83228 34.24643 2767 ft 214 kts 43°
2026-05-05 18:10 27.84328 34.25803 2671 ft 210 kts 43°
2026-05-05 18:10 27.85355 34.26882 2559 ft 192 kts 43°
2026-05-05 18:10 27.86268 34.27839 2426 ft 171 kts 43°
2026-05-05 18:11 27.87120 34.28730 2424 ft 163 kts 43°
2026-05-05 18:11 27.87995 34.29644 2445 ft 182 kts 43°
2026-05-05 18:11 27.88917 34.30608 2228 ft 176 kts 43°
2026-05-05 18:11 27.89785 34.31514 1983 ft 164 kts 43°
2026-05-05 18:12 27.90583 34.32348 1736 ft 151 kts 43°
2026-05-05 18:12 27.91338 34.33162 1445 ft 148 kts 43°
2026-05-05 18:12 27.92084 34.33967 1257 ft 148 kts 43°
2026-05-05 18:12 27.92861 34.34752 1065 ft 148 kts 41°
2026-05-05 18:13 27.93636 34.35544 958 ft 163 kts 43°
2026-05-05 18:13 27.94435 34.36389 797 ft 153 kts 43°
2026-05-05 18:13 27.95212 34.37196 589 ft 150 kts 40°
2026-05-05 18:13 27.95978 34.37981 354 ft 148 kts 43°
2026-05-05 18:14 27.96716 34.38732 189 ft 139 kts 43°
2026-05-05 18:14 27.97332 34.39378 171 ft 93 kts 43°
2026-05-05 18:14 27.97694 34.39753 174 ft 63 kts 43°
2026-05-05 18:14 27.97884 34.39909 173 ft 11 kts 297°
2026-05-05 18:15 27.97924 34.39840 173 ft 11 kts 312°
2026-05-05 18:15 27.97985 34.39769 173 ft 15 kts 309°
2026-05-05 18:15 27.98068 34.39663 173 ft 20 kts 311°
2026-05-05 18:15 27.98164 34.39546 173 ft 20 kts 314°
2026-05-05 18:16 27.98230 34.39467 172 ft 0 kts 311°
2026-05-05 18:16 27.98235 34.39461 171 ft 4 kts 309°
2026-05-05 18:16 27.98258 34.39432 171 ft 7 kts 313°
2026-05-05 18:16 27.98302 34.39379 171 ft 11 kts 313°
2026-05-05 18:17 27.98365 34.39301 171 ft 15 kts 312°
2026-05-05 18:17 27.98342 34.39201 171 ft 16 kts 222°
2026-05-05 18:17 27.98264 34.39120 171 ft 15 kts 223°
2026-05-05 18:17 27.98195 34.39047 171 ft 4 kts 223°
2026-05-05 18:19 27.98193 34.39045 171 ft 2 kts 223°
2026-05-05 18:19 27.98143 34.39038 171 ft 9 kts 140°
2026-05-05 18:20 27.98135 34.39047 171 ft 0 kts 136°
2026-05-05 18:20 27.98130 34.39052 171 ft 0 kts 135°